Location: Bradford+West+Gwillimbury,+ON,+Canadà
(44.1162°N, 79.5735°W)
Time: 17:08:41
(UTC-04:00)

STARLINK-2754 - Pass Details

Date: 22 June 2021
Orbit: 546 x 548 km, 53.1° (Epoch: 05 August)

Event Time Altitude Azimuth Distance (km) Brightness Sun altitude
Exits shadow 04:23:02 11° 189° (S) 1,774 5.7 -10.6°
Maximum altitude 04:26:23 26° 133° (SE) 1,085 5.1 -10.2°
Drops below altitude 10° 04:29:52 10° 75° (ENE) 1,821 7.2 -9.7°
Sets 04:32:20 0° 63° (ENE) 2,719 8.7 -9.4°
